KF5PJP Weather Reports


Display with metric or nautical units.
time (UTC)temp
F
wind
direction
speed
MPH
gust
MPH
rain 1hr
in
rain 24hr
in
rain mn
in
humidity
%
barometer
mb
20260902025927 86 277 0.0 1.0 0.00 0.00 0.00 65 1014.3
20260902025500 86 279 0.0 1.0 0.00 0.00 0.00 65 1014.3
20260902023935 86 268 0.0 1.0 0.00 0.00 0.00 65 1014.0
20260902022944 87 279 0.0 2.0 0.00 0.00 0.00 64 1013.8
20260902021935 87 275 0.0 1.0 0.00 0.00 0.00 64 1013.7
20260902021011 87 278 0.0 2.0 0.00 0.00 0.00 63 1013.5
20260902020005 87 283 0.0 3.0 0.00 0.00 0.00 63 1013.5
20260902015423 87 275 0.0 4.0 0.00 0.00 0.00 63 1013.4
20260902014959 88 276 0.0 3.0 0.00 0.00 0.00 63 1013.3
20260902013946 88 270 0.0 3.0 0.00 0.00 0.00 62 1013.3
20260902013442 88 277 1.0 3.0 0.00 0.00 0.00 62 1013.2
20260902013018 88 284 0.0 2.0 0.00 0.00 0.00 62 1013.2
20260902012442 88 269 0.0 1.0 0.00 0.00 0.00 62 1013.3
20260902011923 88 252 0.0 4.0 0.00 0.00 0.00 61 1013.3
20260902011505 88 117 1.0 4.0 0.00 0.00 0.00 61 1013.3
20260902010930 89 286 1.0 4.0 0.00 0.00 0.00 61 1013.3
20260902010454 89 300 1.0 2.0 0.00 0.00 0.00 60 1013.3
20260902005439 90 267 0.0 4.0 0.00 0.00 0.00 59 1013.1
20260902004435 91 274 1.0 5.0 0.00 0.00 0.00 58 1013.0
20260902004019 91 268 0.0 3.0 0.00 0.00 0.00 56 1012.9
20260902002952 94 273 0.0 3.0 0.00 0.00 0.00 51 1012.6
20260902001945 95 281 1.0 2.0 0.00 0.00 0.00 44 1012.3
20260902001521 95 292 1.0 3.0 0.00 0.00 0.00 44 1012.3
20260902000932 95 278 2.0 3.0 0.00 0.00 0.00 44 1012.2
20260902000506 95 266 1.0 6.0 0.00 0.00 0.00 44 1012.2
20260901234944 95 271 1.0 2.0 0.00 0.00 0.00 43 1012.0
20260901234519 95 285 1.0 2.0 0.00 0.00 0.00 44 1012.1
20260901233926 95 273 2.0 3.0 0.00 0.00 0.00 43 1012.1
20260901233457 96 283 0.0 3.0 0.00 0.00 0.00 42 1012.1
20260901232438 96 290 3.0 5.0 0.00 0.00 0.00 42 1012.2
20260901232018 97 279 3.0 7.0 0.00 0.00 0.00 42 1012.2
20260901231543 97 281 3.0 7.0 0.00 0.00 0.00 42 1012.2
20260901230935 97 270 1.0 5.0 0.00 0.00 0.00 42 1012.2
20260901230517 97 269 1.0 5.0 0.00 0.00 0.00 42 1012.2
20260901230046 97 275 2.0 5.0 0.00 0.00 0.00 42 1012.2
20260901225438 97 274 2.0 6.0 0.00 0.00 0.00 41 1012.2
20260901224448 98 267 1.0 5.0 0.00 0.00 0.00 42 1012.3
20260901224013 98 281 3.0 6.0 0.00 0.00 0.00 42 1012.3
20260901223437 97 270 1.0 6.0 0.00 0.00 0.00 42 1012.3
20260901223020 98 254 2.0 4.0 0.00 0.00 0.00 42 1012.3
20260901222445 98 282 2.0 4.0 0.00 0.00 0.00 42 1012.3
20260901221519 98 322 2.0 5.0 0.00 0.00 0.00 42 1012.3
20260901220932 98 288 2.0 4.0 0.00 0.00 0.00 42 1012.4
20260901215951 97 286 2.0 5.0 0.00 0.00 0.00 44 1012.4
20260901215429 96 286 2.0 5.0 0.00 0.00 0.00 44 1012.5
20260901215022 96 248 2.0 6.0 0.00 0.00 0.00 45 1012.6
20260901214001 96 279 3.0 6.0 0.00 0.00 0.00 44 1012.8
20260901212957 97 273 2.0 4.0 0.00 0.00 0.00 45 1012.8
20260901212516 97 267 2.0 4.0 0.00 0.00 0.00 45 1012.8
20260901211932 96 241 2.0 3.0 0.00 0.00 0.00 47 1013.0
20260901211518 95 275 2.0 3.0 0.00 0.00 0.00 47 1013.0
20260901210927 95 270 1.0 4.0 0.00 0.00 0.00 47 1013.1
20260901210503 95 244 1.0 6.0 0.00 0.00 0.00 47 1013.2
20260901205443 96 259 1.0 2.0 0.00 0.00 0.00 47 1013.1
20260901205017 95 284 0.0 4.0 0.00 0.00 0.00 48 1013.2
20260901204428 95 259 1.0 4.0 0.00 0.00 0.00 48 1013.5
20260901204009 95 284 2.0 4.0 0.00 0.00 0.00 48 1013.5
20260901202947 96 294 3.0 5.0 0.00 0.00 0.00 47 1013.6
20260901202522 96 284 3.0 5.0 0.00 0.00 0.00 47 1013.6
20260901201933 96 288 3.0 5.0 0.00 0.00 0.00 46 1013.6
20260901200948 98 263 2.0 5.0 0.00 0.00 0.00 44 1013.7
20260901195929 98 273 2.0 5.0 0.00 0.00 0.00 46 1013.8
20260901195458 97 238 2.0 4.0 0.00 0.00 0.00 46 1013.8
20260901195024 97 249 2.0 4.0 0.00 0.00 0.00 46 1013.9
20260901194520 97 283 3.0 4.0 0.00 0.00 0.00 46 1014.0
20260901193929 98 281 2.0 3.0 0.00 0.00 0.00 45 1013.9
20260901193500 97 281 1.0 4.0 0.00 0.00 0.00 46 1014.0
20260901192450 98 236 2.0 3.0 0.00 0.00 0.00 45 1014.0
20260901191456 98 274 2.0 3.0 0.00 0.00 0.00 45 1014.0
20260901190925 98 197 1.0 3.0 0.00 0.00 0.00 45 1014.2
20260901190504 97 240 1.0 3.0 0.00 0.00 0.00 46 1014.2
20260901190025 96 279 1.0 3.0 0.00 0.00 0.00 48 1014.1
20260901185432 95 22 1.0 3.0 0.00 0.00 0.00 50 1014.3
20260901185015 95 274 2.0 5.0 0.00 0.00 0.00 49 1014.4
20260901184438 96 242 3.0 5.0 0.00 0.00 0.00 48 1014.6
20260901184000 97 265 2.0 3.0 0.00 0.00 0.00 47 1014.7
20260901182437 95 299 1.0 3.0 0.00 0.00 0.00 49 1014.9
20260901181455 95 240 2.0 4.0 0.00 0.00 0.00 49 1015.1
20260901181022 96 286 2.0 4.0 0.00 0.00 0.00 48 1015.2
20260901180444 97 267 1.0 4.0 0.00 0.00 0.00 48 1015.2
20260901175436 95 246 3.0 4.0 0.00 0.00 0.00 50 1015.3
20260901175006 95 228 0.0 4.0 0.00 0.00 0.00 52 1015.5
20260901173951 96 280 1.0 3.0 0.00 0.00 0.00 49 1015.5
20260901173526 96 270 2.0 4.0 0.00 0.00 0.00 49 1015.7
20260901173022 96 284 2.0 5.0 0.00 0.00 0.00 50 1015.7
20260901172432 96 254 1.0 3.0 0.00 0.00 0.00 50 1015.9
20260901172015 95 256 2.0 4.0 0.00 0.00 0.00 51 1015.9
20260901171439 94 268 2.0 4.0 0.00 0.00 0.00 50 1016.1
20260901171015 94 282 1.0 4.0 0.00 0.00 0.00 53 1016.2
20260901165946 93 252 1.0 5.0 0.00 0.00 0.00 54 1016.4
20260901165503 94 279 2.0 5.0 0.00 0.00 0.00 53 1016.3
20260901165016 93 245 2.0 4.0 0.00 0.00 0.00 54 1016.4
20260901164435 94 288 2.0 4.0 0.00 0.00 0.00 54 1016.6
20260901163448 94 247 1.0 3.0 0.00 0.00 0.00 54 1016.7
20260901162444 93 262 1.0 4.0 0.00 0.00 0.00 54 1016.7
20260901161442 93 269 2.0 4.0 0.00 0.00 0.00 55 1016.8
20260901160941 92 205 0.0 2.0 0.00 0.00 0.00 57 1016.7
20260901155944 92 279 0.0 3.0 0.00 0.00 0.00 57 1016.8
20260901154953 93 216 0.0 3.0 0.00 0.00 0.00 56 1016.8
20260901154522 93 280 0.0 3.0 0.00 0.00 0.00 57 1016.9
20260901153931 93 265 0.0 2.0 0.00 0.00 0.00 58 1016.9
20260901153502 92 278 0.0 2.0 0.00 0.00 0.00 60 1016.8
20260901152455 90 117 0.0 2.0 0.00 0.00 0.00 61 1016.9
20260901152030 90 331 0.0 2.0 0.00 0.00 0.00 62 1016.9
20260901151427 89 120 0.0 2.0 0.00 0.00 0.00 63 1016.9
20260901151005 89 272 1.0 2.0 0.00 0.00 0.00 63 1016.9
20260901145955 88 117 0.0 1.0 0.00 0.00 0.00 66 1016.9
20260901144948 87 122 0.0 2.0 0.00 0.00 0.00 68 1016.9
20260901144520 86 88 0.0 3.0 0.00 0.00 0.00 69 1016.9
20260901143947 86 121 0.0 1.0 0.00 0.00 0.00 69 1016.9
20260901143506 86 121 1.0 1.0 0.00 0.00 0.00 70 1017.0
20260901143029 85 122 0.0 2.0 0.00 0.00 0.00 71 1017.0
20260901142539 85 85 0.0 2.0 0.00 0.00 0.00 71 1017.1
20260901141924 85 85 0.0 2.0 0.00 0.00 0.00 71 1017.1
20260901141448 85 86 0.0 2.0 0.00 0.00 0.00 72 1017.1
20260901140451 84 131 0.0 0.0 0.00 0.00 0.00 73 1017.1
20260901135445 84 84 0.0 0.0 0.00 0.00 0.00 75 1017.1
20260901134443 83 82 0.0 0.0 0.00 0.00 0.00 76 1017.2
20260901134018 83 311 0.0 1.0 0.00 0.00 0.00 77 1017.1
20260901133509 82 309 0.0 1.0 0.00 0.00 0.00 77 1017.1
20260901132438 81 279 0.0 0.0 0.00 0.00 0.00 78 1017.1
20260901131454 80 279 0.0 0.0 0.00 0.00 0.00 80 1017.1
20260901130451 79 279 0.0 0.0 0.00 0.00 0.00 81 1017.0
20260901125435 78 279 0.0 0.0 0.00 0.00 0.00 82 1016.9
20260901124444 78 279 0.0 0.0 0.00 0.00 0.00 83 1016.8
20260901123457 77 279 0.0 1.0 0.00 0.00 0.00 83 1016.6
20260901122431 77 221 0.0 0.0 0.00 0.00 0.00 83 1016.6
20260901122010 77 221 0.0 0.0 0.00 0.00 0.00 83 1016.6
20260901121522 77 221 0.0 0.0 0.00 0.00 0.00 83 1016.5
20260901120445 77 221 0.0 0.0 0.00 0.00 0.00 82 1016.3
20260901120000 77 221 0.0 0.0 0.00 0.00 0.00 82 1016.3
20260901114937 77 221 0.0 0.0 0.00 0.00 0.00 82 1016.1
20260901114512 77 221 0.0 0.0 0.00 0.00 0.00 81 1016.1
20260901114022 77 221 0.0 0.0 0.00 0.00 0.00 81 1016.0
20260901113432 77 221 0.0 0.0 0.00 0.00 0.00 81 1015.9
20260901113002 77 221 0.0 0.0 0.00 0.00 0.00 81 1016.0
20260901111941 77 221 0.0 0.0 0.00 0.00 0.00 81 1015.9
20260901111521 77 221 0.0 0.0 0.00 0.00 0.00 81 1015.9
20260901110955 77 221 0.0 0.0 0.00 0.00 0.00 80 1015.9
20260901105936 78 221 0.0 0.0 0.00 0.00 0.00 80 1016.0
20260901104941 78 221 0.0 0.0 0.00 0.00 0.00 80 1016.0
20260901104514 78 221 0.0 0.0 0.00 0.00 0.00 79 1016.0
20260901103935 78 221 0.0 0.0 0.00 0.00 0.00 79 1016.0
20260901103511 78 221 0.0 0.0 0.00 0.00 0.00 79 1015.9
20260901103019 78 221 0.0 0.0 0.00 0.00 0.00 79 1015.9
20260901102430 78 221 0.0 0.0 0.00 0.00 0.00 78 1015.8
20260901101959 78 221 0.0 0.0 0.00 0.00 0.00 78 1015.8
20260901100951 78 221 0.0 0.0 0.00 0.00 0.00 77 1015.7
20260901095953 79 221 0.0 0.0 0.00 0.00 0.00 77 1015.6
20260901095000 79 221 0.0 0.0 0.00 0.00 0.00 77 1015.8
20260901094438 79 221 0.0 0.0 0.00 0.00 0.00 77 1015.7
20260901094012 79 221 0.0 0.0 0.00 0.00 0.00 77 1015.7
20260901093433 79 221 0.0 0.0 0.00 0.00 0.00 76 1015.6
20260901093002 79 221 0.0 0.0 0.00 0.00 0.00 76 1015.7
20260901092525 79 221 0.0 0.0 0.00 0.00 0.00 75 1015.7
20260901091442 80 221 0.0 0.0 0.00 0.00 0.00 75 1015.6
20260901091013 80 221 0.0 0.0 0.00 0.00 0.00 74 1015.6
20260901090444 80 221 0.0 0.0 0.00 0.00 0.00 74 1015.7
20260901090003 80 221 0.0 0.0 0.00 0.00 0.00 74 1015.8
20260901085427 80 221 0.0 0.0 0.00 0.00 0.00 74 1015.8
20260901084444 80 221 0.0 0.0 0.00 0.00 0.00 73 1015.9
20260901084014 80 221 0.0 0.0 0.00 0.00 0.00 73 1015.8
20260901083441 81 223 0.0 0.0 0.00 0.00 0.00 73 1015.9
20260901082949 81 219 0.0 0.0 0.00 0.00 0.00 72 1015.8
20260901081944 81 219 0.0 0.0 0.00 0.00 0.00 72 1015.8
20260901081509 81 219 0.0 1.0 0.00 0.00 0.00 72 1015.8
20260901080500 81 244 0.0 0.0 0.00 0.00 0.00 71 1015.9
20260901080013 81 245 0.0 0.0 0.00 0.00 0.00 71 1015.8
20260901075443 82 245 0.0 1.0 0.00 0.00 0.00 70 1015.8
20260901074447 82 188 0.0 0.0 0.00 0.00 0.00 70 1015.7
20260901073947 82 187 0.0 0.0 0.00 0.00 0.00 69 1015.6
20260901072953 82 265 0.0 0.0 0.00 0.00 0.00 68 1015.7
20260901071944 82 179 0.0 1.0 0.00 0.00 0.00 67 1015.7
20260901070953 83 279 0.0 1.0 0.00 0.00 0.00 66 1015.6
20260901070515 83 226 0.0 1.0 0.00 0.00 0.00 66 1015.6
20260901065925 83 226 0.0 1.0 0.00 0.00 0.00 66 1015.7
20260901065442 83 226 0.0 1.0 0.00 0.00 0.00 65 1015.7
20260901064955 83 226 0.0 1.0 0.00 0.00 0.00 65 1015.7
20260901064429 83 225 0.0 1.0 0.00 0.00 0.00 64 1015.7
20260901063949 84 129 0.0 1.0 0.00 0.00 0.00 64 1015.7
20260901063425 84 208 0.0 1.0 0.00 0.00 0.00 63 1015.7
20260901062953 84 215 0.0 1.0 0.00 0.00 0.00 63 1015.6
20260901062455 84 213 0.0 1.0 0.00 0.00 0.00 62 1015.5
20260901061946 84 216 0.0 1.0 0.00 0.00 0.00 62 1015.5
20260901061430 85 291 0.0 2.0 0.00 0.00 0.00 61 1015.4
20260901060948 85 252 0.0 1.0 0.00 0.00 0.00 61 1015.4
20260901060444 85 223 0.0 1.0 0.00 0.00 0.00 61 1015.4
20260901055932 85 244 0.0 1.0 0.00 0.00 0.00 60 1015.4
20260901055436 85 244 0.0 1.0 0.00 0.00 0.00 60 1015.4
20260901054930 85 258 0.0 1.0 0.00 0.00 0.00 60 1015.3
20260901054426 85 269 0.0 1.0 0.00 0.00 0.00 60 1015.2
20260901053927 85 279 0.0 1.0 0.00 0.00 0.00 60 1015.2
20260901053450 85 279 0.0 1.0 0.00 0.00 0.00 60 1015.0
20260901052929 86 279 0.0 1.0 0.00 0.00 0.00 60 1015.0
20260901052432 86 279 0.0 1.0 0.00 0.00 0.00 60 1015.0
20260901051951 86 275 0.0 1.0 0.00 0.00 0.00 60 1015.0
20260901051442 86 275 0.0 1.0 0.00 0.00 0.00 59 1014.9
20260901050929 86 275 0.0 1.0 0.00 0.00 0.00 59 1014.8
20260901050433 86 275 0.0 1.0 0.00 0.00 0.00 59 1014.9
20260901045930 86 278 0.0 1.0 0.00 0.00 0.00 59 1014.8
20260901045456 86 278 0.0 1.0 0.00 0.00 0.00 59 1014.8
20260901045001 87 279 0.0 0.0 0.00 0.00 0.00 58 1014.8
20260901044505 87 279 0.0 0.0 0.00 0.00 0.00 58 1014.8
20260901043438 87 278 0.0 0.0 0.00 0.00 0.00 57 1014.7
20260901042930 87 280 0.0 0.0 0.00 0.00 0.00 57 1014.7
20260901042512 87 279 0.0 0.0 0.00 0.00 0.00 57 1014.7
20260901042018 87 279 0.0 0.0 0.00 0.00 0.00 57 1014.7
20260901041429 88 266 0.0 0.0 0.00 0.00 0.00 56 1014.8
20260901041002 88 267 0.0 0.0 0.00 0.00 0.00 56 1014.8
20260901035953 88 265 0.0 0.0 0.00 0.00 0.00 56 1014.7
20260901035431 88 283 0.0 0.0 0.00 0.00 0.00 55 1014.7
20260901034438 88 283 0.0 0.0 0.00 0.00 0.00 55 1014.6
20260901033454 89 284 1.0 2.0 0.00 0.00 0.00 55 1014.6
20260901032448 89 290 0.0 1.0 0.00 0.00 0.00 54 1014.6
20260901032018 89 277 0.0 2.0 0.00 0.00 0.00 54 1014.6
20260901030954 89 276 0.0 1.0 0.00 0.00 0.00 54 1014.5
20260901030519 89 275 0.0 1.0 0.00 0.00 0.00 53 1014.5